TAP644 LPPT-EBBR

Flight info

Callsign TAP644
Flight time N/A
Altitude 36000
Route IXIDA DCT TOSDI N745 ZMR N873 DELOG DCT YURZI DCT OLEBA UN873 BAZOS DCT BELDI DCT VEKIN/N0396F260 Z173 ARVOL
Aircraft A320/M-SDE3FGHIRWY/LB1

Departure

Time N/A
Airport Lisbon Humberto Delgado Airport (LPPT)

Arrival

Time 2026-05-07 19:30
Airport Brussels Airport (EBBR)
Time Latitude Longitude Altitude Speed Heading
2026-05-07 18:45 48.13332 -0.12200 35998 ft 470 kts 52°
2026-05-07 18:46 48.17358 -0.04492 35995 ft 470 kts 52°
2026-05-07 18:46 48.21360 0.03259 35986 ft 470 kts 52°
2026-05-07 18:47 48.25356 0.11049 35996 ft 470 kts 52°
2026-05-07 18:47 48.29318 0.18782 35996 ft 470 kts 52°
2026-05-07 18:48 48.33308 0.26569 35997 ft 470 kts 52°
2026-05-07 18:48 48.37293 0.34375 35999 ft 470 kts 52°
2026-05-07 18:49 48.41277 0.42198 36004 ft 470 kts 52°
2026-05-07 18:49 48.45288 0.49996 36006 ft 470 kts 52°
2026-05-07 18:50 48.49278 0.57737 36018 ft 470 kts 52°
2026-05-07 18:50 48.53652 0.65053 36019 ft 468 kts 38°
2026-05-07 18:51 48.58806 0.70963 36019 ft 467 kts 36°
2026-05-07 18:51 48.64006 0.76892 36016 ft 467 kts 36°
2026-05-07 18:52 48.69195 0.82835 36028 ft 467 kts 36°
2026-05-07 18:52 48.74371 0.88786 36029 ft 467 kts 36°
2026-05-07 18:53 48.79521 0.94704 36033 ft 466 kts 36°
2026-05-07 18:53 48.84695 1.00666 36033 ft 466 kts 36°
2026-05-07 18:54 48.89866 1.06643 36032 ft 466 kts 36°
2026-05-07 18:54 48.94990 1.12574 36025 ft 465 kts 36°
2026-05-07 18:55 49.00152 1.18564 36023 ft 465 kts 36°
2026-05-07 18:55 49.05107 1.24833 36020 ft 466 kts 43°
2026-05-07 18:56 49.09828 1.31637 36033 ft 466 kts 43°
2026-05-07 18:56 49.14536 1.38449 36021 ft 465 kts 43°
2026-05-07 18:57 49.19209 1.45217 36023 ft 466 kts 43°
2026-05-07 18:57 49.23911 1.52053 36033 ft 466 kts 43°
2026-05-07 18:58 49.28605 1.58886 35298 ft 466 kts 43°
2026-05-07 18:58 49.30982 1.62347 34293 ft 474 kts 43°
2026-05-07 18:58 49.33351 1.65803 33407 ft 477 kts 43°
2026-05-07 18:58 49.35759 1.69321 32537 ft 478 kts 43°
2026-05-07 18:59 49.38159 1.72835 32161 ft 476 kts 43°
2026-05-07 18:59 49.40557 1.76353 32000 ft 476 kts 43°
2026-05-07 18:59 49.42954 1.79871 32053 ft 477 kts 43°
2026-05-07 19:00 49.47727 1.86886 32052 ft 476 kts 43°
2026-05-07 19:00 49.52518 1.93961 32060 ft 476 kts 43°
2026-05-07 19:01 49.57297 2.01050 32059 ft 476 kts 43°
2026-05-07 19:01 49.62078 2.08150 32058 ft 476 kts 43°
2026-05-07 19:02 49.66830 2.15231 32059 ft 476 kts 43°
2026-05-07 19:02 49.71561 2.22296 32062 ft 476 kts 43°
2026-05-07 19:03 49.76320 2.29409 32064 ft 475 kts 43°
2026-05-07 19:03 49.81072 2.36536 32068 ft 476 kts 43°
2026-05-07 19:03 49.83453 2.40122 31854 ft 476 kts 43°
2026-05-07 19:04 49.85826 2.43704 31431 ft 476 kts 43°
2026-05-07 19:04 49.88171 2.47249 31034 ft 476 kts 43°
2026-05-07 19:04 49.90552 2.50845 30632 ft 476 kts 43°
2026-05-07 19:04 49.92930 2.54443 30233 ft 479 kts 43°
2026-05-07 19:05 49.95334 2.58088 29792 ft 481 kts 43°
2026-05-07 19:05 49.97702 2.61684 29336 ft 483 kts 43°
2026-05-07 19:05 50.00105 2.65333 28883 ft 484 kts 43°
2026-05-07 19:05 50.02519 2.69003 28436 ft 485 kts 43°
2026-05-07 19:06 50.04935 2.72684 27995 ft 486 kts 43°
2026-05-07 19:06 50.09770 2.80081 27139 ft 487 kts 44°
2026-05-07 19:06 50.12191 2.83793 26738 ft 488 kts 44°
2026-05-07 19:07 50.14613 2.87512 26332 ft 489 kts 44°
2026-05-07 19:07 50.17012 2.91208 25930 ft 490 kts 44°
2026-05-07 19:07 50.19438 2.94954 25530 ft 491 kts 44°
2026-05-07 19:07 50.21869 2.98711 25133 ft 492 kts 44°
2026-05-07 19:08 50.24305 3.02475 24742 ft 493 kts 44°
2026-05-07 19:08 50.26753 3.06255 24361 ft 494 kts 44°
2026-05-07 19:08 50.29195 3.10031 23984 ft 494 kts 44°
2026-05-07 19:08 50.31672 3.13781 23600 ft 495 kts 42°
2026-05-07 19:09 50.34152 3.17328 23153 ft 480 kts 40°
2026-05-07 19:09 50.36668 3.20766 22715 ft 485 kts 39°
2026-05-07 19:09 50.39232 3.24192 22283 ft 477 kts 39°
2026-05-07 19:09 50.41711 3.27508 22041 ft 458 kts 39°
2026-05-07 19:10 50.44042 3.30667 22080 ft 425 kts 40°
2026-05-07 19:10 50.46220 3.33667 22092 ft 407 kts 40°
2026-05-07 19:10 50.48318 3.36589 22086 ft 400 kts 40°
2026-05-07 19:10 50.50361 3.39449 22082 ft 398 kts 40°
2026-05-07 19:11 50.52432 3.42351 22079 ft 398 kts 40°
2026-05-07 19:11 50.54501 3.45245 22034 ft 397 kts 40°
2026-05-07 19:11 50.56560 3.48123 21538 ft 393 kts 40°
2026-05-07 19:11 50.58594 3.50975 21023 ft 390 kts 40°
2026-05-07 19:12 50.60615 3.53812 20542 ft 387 kts 40°
2026-05-07 19:12 50.62592 3.56589 20070 ft 384 kts 40°
2026-05-07 19:12 50.64578 3.59376 19605 ft 381 kts 40°
2026-05-07 19:12 50.66550 3.62151 19145 ft 378 kts 41°
2026-05-07 19:13 50.68505 3.64907 18698 ft 375 kts 41°
2026-05-07 19:13 50.70446 3.67641 18244 ft 373 kts 41°
2026-05-07 19:13 50.72379 3.70368 17752 ft 370 kts 41°
2026-05-07 19:13 50.74292 3.73069 17276 ft 367 kts 41°
2026-05-07 19:14 50.76167 3.75721 16819 ft 364 kts 41°
2026-05-07 19:14 50.78051 3.78389 16362 ft 362 kts 41°
2026-05-07 19:14 50.79918 3.81039 16086 ft 354 kts 41°
2026-05-07 19:14 50.81712 3.83583 15926 ft 341 kts 41°
2026-05-07 19:15 50.83460 3.86067 15671 ft 335 kts 41°
2026-05-07 19:15 50.85164 3.88495 15335 ft 332 kts 41°
2026-05-07 19:15 50.86879 3.90944 14979 ft 330 kts 41°
2026-05-07 19:15 50.88579 3.93383 14628 ft 328 kts 44°
2026-05-07 19:16 50.90076 3.96118 14271 ft 327 kts 55°
2026-05-07 19:16 50.91210 3.99237 13922 ft 325 kts 66°
2026-05-07 19:16 50.91954 4.02557 13558 ft 322 kts 77°
2026-05-07 19:16 50.92453 4.06017 13152 ft 321 kts 75°
2026-05-07 19:17 50.93108 4.09395 12776 ft 319 kts 73°
2026-05-07 19:17 50.93783 4.12729 12401 ft 317 kts 72°
2026-05-07 19:17 50.94450 4.16022 12033 ft 315 kts 72°
2026-05-07 19:17 50.95118 4.19324 11666 ft 313 kts 72°
2026-05-07 19:18 50.95780 4.22610 11294 ft 311 kts 72°
2026-05-07 19:18 50.96437 4.25873 10924 ft 309 kts 72°
2026-05-07 19:18 50.97088 4.29117 10562 ft 307 kts 72°
2026-05-07 19:18 50.97734 4.32350 10201 ft 305 kts 72°
2026-05-07 19:19 50.98374 4.35557 9821 ft 304 kts 72°
2026-05-07 19:19 50.99003 4.38712 9424 ft 301 kts 72°
2026-05-07 19:19 50.99635 4.41875 9029 ft 299 kts 72°
2026-05-07 19:19 51.00262 4.45009 8636 ft 297 kts 72°
2026-05-07 19:20 51.00886 4.48120 8289 ft 293 kts 72°
2026-05-07 19:20 51.01494 4.51152 8080 ft 284 kts 72°
2026-05-07 19:20 51.02092 4.54124 7733 ft 280 kts 73°
2026-05-07 19:20 51.02685 4.57066 7363 ft 278 kts 72°
2026-05-07 19:21 51.03267 4.59942 6997 ft 276 kts 73°
2026-05-07 19:21 51.03854 4.62840 6617 ft 274 kts 73°
2026-05-07 19:21 51.04438 4.65715 6244 ft 272 kts 73°
2026-05-07 19:21 51.05016 4.68563 5859 ft 269 kts 72°
2026-05-07 19:22 51.05584 4.71377 5489 ft 266 kts 73°
2026-05-07 19:22 51.06143 4.74165 5233 ft 258 kts 73°
2026-05-07 19:22 51.06665 4.76792 5106 ft 246 kts 73°
2026-05-07 19:22 51.07166 4.79316 4904 ft 234 kts 73°
2026-05-07 19:23 51.07492 4.81806 4619 ft 229 kts 93°
2026-05-07 19:23 51.07012 4.84164 4293 ft 227 kts 126°
2026-05-07 19:23 51.05820 4.85777 3933 ft 227 kts 149°
2026-05-07 19:23 51.04431 4.86960 3701 ft 223 kts 152°
2026-05-07 19:24 51.03076 4.88041 3560 ft 211 kts 153°
2026-05-07 19:24 51.01798 4.89050 3441 ft 199 kts 153°
2026-05-07 19:24 51.00584 4.89993 3292 ft 190 kts 156°
2026-05-07 19:24 50.99325 4.90239 3140 ft 188 kts 196°
2026-05-07 19:25 50.98303 4.89024 3068 ft 189 kts 240°
2026-05-07 19:25 50.97831 4.87070 3011 ft 190 kts 250°
2026-05-07 19:25 50.97385 4.85098 3009 ft 191 kts 250°
2026-05-07 19:25 50.96933 4.83110 3011 ft 191 kts 250°
2026-05-07 19:26 50.96482 4.81130 3016 ft 191 kts 250°
2026-05-07 19:26 50.96033 4.79154 3018 ft 190 kts 250°
2026-05-07 19:26 50.95588 4.77198 3013 ft 190 kts 250°
2026-05-07 19:26 50.95136 4.75214 3015 ft 190 kts 250°
2026-05-07 19:27 50.94686 4.73240 2910 ft 190 kts 250°
2026-05-07 19:27 50.94235 4.71263 2698 ft 190 kts 250°
2026-05-07 19:27 50.93786 4.69299 2454 ft 189 kts 250°
2026-05-07 19:27 50.93337 4.67336 2192 ft 188 kts 250°
2026-05-07 19:28 50.92892 4.65393 1938 ft 188 kts 250°
2026-05-07 19:28 50.92447 4.63450 1683 ft 191 kts 250°
2026-05-07 19:28 50.91993 4.61469 1415 ft 191 kts 250°
2026-05-07 19:28 50.91558 4.59574 1174 ft 173 kts 250°
2026-05-07 19:29 50.91169 4.57881 941 ft 155 kts 250°
2026-05-07 19:29 50.90932 4.56848 798 ft 147 kts 250°
2026-05-07 19:29 50.90589 4.55351 600 ft 142 kts 249°
2026-05-07 19:29 50.90248 4.53895 404 ft 139 kts 248°
2026-05-07 19:30 50.89919 4.52455 262 ft 138 kts 249°
2026-05-07 19:30 50.89601 4.51060 175 ft 127 kts 250°
2026-05-07 19:30 50.89353 4.49993 177 ft 78 kts 250°
2026-05-07 19:30 50.89232 4.49448 176 ft 27 kts 259°
2026-05-07 19:31 50.89268 4.49244 172 ft 19 kts 296°
2026-05-07 19:31 50.89306 4.49162 169 ft 7 kts 310°
2026-05-07 19:31 50.89337 4.49113 167 ft 4 kts 327°
2026-05-07 19:31 50.89373 4.49103 165 ft 6 kts 356°
2026-05-07 19:32 50.89422 4.49116 163 ft 8 kts 18°
2026-05-07 19:32 50.89474 4.49148 161 ft 8 kts 19°
2026-05-07 19:32 50.89528 4.49175 159 ft 7 kts 18°
2026-05-07 19:32 50.89562 4.49191 157 ft 6 kts
2026-05-07 19:33 50.89629 4.49159 153 ft 14 kts 345°
2026-05-07 19:33 50.89749 4.49186 146 ft 21 kts 13°
2026-05-07 19:33 50.89862 4.49237 140 ft 19 kts 17°
2026-05-07 19:33 50.89988 4.49286 133 ft 19 kts 14°
2026-05-07 19:34 50.90095 4.49330 128 ft 17 kts 14°
2026-05-07 19:34 50.90220 4.49380 128 ft 19 kts 11°
2026-05-07 19:34 50.90354 4.49432 124 ft 21 kts 15°
2026-05-07 19:34 50.90431 4.49463 122 ft 0 kts
2026-05-07 19:35 50.90433 4.49424 124 ft 4 kts 248°
2026-05-07 19:35 50.90418 4.49332 123 ft 14 kts 278°
2026-05-07 19:35 50.90483 4.49252 120 ft 10 kts 337°
2026-05-07 19:36 50.90530 4.49221 120 ft 4 kts 336°
2026-05-07 19:36 50.90578 4.49188 121 ft 12 kts 333°
2026-05-07 19:36 50.90588 4.49179 121 ft 0 kts 334°
2026-05-07 19:39 50.90590 4.49178 123 ft 2 kts 334°
2026-05-07 19:40 50.90655 4.49131 120 ft 15 kts 336°
2026-05-07 19:40 50.90701 4.49006 120 ft 15 kts 259°
2026-05-07 19:40 50.90661 4.48859 119 ft 14 kts 245°
2026-05-07 19:40 50.90622 4.48726 117 ft 13 kts 245°
2026-05-07 19:41 50.90588 4.48608 117 ft 11 kts 245°
2026-05-07 19:41 50.90549 4.48472 118 ft 16 kts 246°
2026-05-07 19:41 50.90505 4.48319 119 ft 12 kts 245°
2026-05-07 19:41 50.90475 4.48212 119 ft 10 kts 246°
2026-05-07 19:42 50.90455 4.48146 120 ft 0 kts 243°
2026-05-07 19:42 50.90449 4.48127 119 ft 9 kts 243°
2026-05-07 19:42 50.90416 4.48011 118 ft 11 kts 246°
2026-05-07 19:42 50.90406 4.47979 118 ft 0 kts 246°
2026-05-07 19:43 50.90406 4.47978 118 ft 1 kts 242°
2026-05-07 19:43 50.90397 4.47985 117 ft 3 kts 149°
2026-05-07 19:44 50.90340 4.47996 121 ft 15 kts 212°
2026-05-07 19:44 50.90291 4.47857 118 ft 14 kts 246°
2026-05-07 19:44 50.90260 4.47745 117 ft 0 kts 246°
2026-05-07 19:45 50.90258 4.47738 118 ft 5 kts 249°
2026-05-07 19:45 50.90232 4.47713 120 ft 3 kts 174°
2026-05-07 19:45 50.90218 4.47723 118 ft 2 kts 154°
2026-05-07 19:46 50.90192 4.47744 116 ft 5 kts 155°
2026-05-07 19:46 50.90174 4.47756 120 ft 0 kts 155°